Location: Plymouth
(43.7490°N, 87.9770°W)
Time: 17:33:04
(UTC-05:00)

Daily predictions for brighter satellites

Satellite Brightness Start Highest point End
(mag) Time Altitude Azimuth Time Altitude Azimuth Time Altitude Azimuth
DELTA 2 R/B (1) 3.9 21:04:36 10° W 21:10:00 53° S 21:15:23 10° ESE
Cosmos 1437 4.2 21:09:59 10° SE 21:12:33 22° E 21:15:10 10° NE
USA 245 4.5 21:11:30 10° E 21:12:44 13° ENE 21:13:54 10° NE
Nimbus 7 Rocket 4.5 21:08:30 10° NNE 21:14:17 59° ESE 21:20:03 10° S
Cosmos 1777 Rocket 4.0 21:11:36 10° S 21:16:49 65° ESE 21:22:02 10° NNE
COSMOS 2428 3.8 21:14:12 10° N 21:19:16 32° NE 21:24:19 10° ESE
PSLV R/B 3.6 21:16:42 10° SSE 21:19:40 45° ENE 21:22:38 10° N
ATLAS 5 CENTAUR R/B 4.1 21:15:59 10° WSW 21:20:25 31° NW 21:25:11 10° NNE
Cosmos 2266 Rocket 4.1 21:16:25 10° S 21:22:37 62° E 21:28:44 10° NNE
AVUM R/B 2.8 21:20:35 10° S 21:22:47 41° ESE 21:25:11 10° NE
Meteor 1-21 Rocket 4.2 21:17:23 10° S 21:22:56 90° NW 21:28:30 10° N
Cosmos 1553 Rocket 4.4 21:16:38 10° NNW 21:23:01 71° W 21:29:18 10° S
Cosmos 405 3.2 21:20:07 10° N 21:23:43 60° ENE 21:27:18 10° SSE
Cosmos 2151 3.5 21:20:03 10° SSE 21:23:57 39° E 21:27:53 10° NNE
NOSS 3-1 (C) 4.3 21:22:03 10° SSE 21:26:46 26° ESE 21:31:51 10° ENE
YAOGAN 6 3.3 21:23:38 10° SE 21:27:02 38° ENE 21:30:25 10° N
Cosmos 304 Rocket 4.0 21:22:40 10° NNW 21:27:27 59° ENE 21:32:11 10° SSE
Cosmos 1328 4.3 21:28:54 10° SSE 21:32:35 39° E 21:36:18 10° NNE
Cosmos 1151 Rocket 3.0 21:29:28 10° N 21:33:47 80° E 21:38:07 10° S
H-2A R/B 3.6 21:29:59 10° ESE 21:34:06 23° ENE 21:38:18 10° NNE
Cosmos 2219 Rocket 3.8 21:31:16 10° N 21:35:41 23° NE 21:40:05 10° ESE
CZ-2C R/B 2.7 21:36:23 10° SW 21:37:17 13° W 21:38:11 10° WNW
Cosmos 1805 Rocket 4.4 21:33:47 10° SSE 21:37:48 34° E 21:41:49 10° NNE
MetOp-A 4.2 21:34:22 10° SSE 21:39:41 78° ENE 21:45:04 10° N
ARGOS 3.6 21:37:03 11° SE 21:42:01 49° ENE 21:47:12 10° N
Cosmos 1680 Rocket 3.5 21:39:27 10° NNW 21:44:44 81° ENE 21:49:36 12° SSE
SPOT 1/Viking Rocket 3.7 21:41:07 11° SSE 21:45:57 62° ENE 21:51:03 10° N
Cosmos 923 Rocket 4.2 21:43:14 10° NNW 21:48:27 73° WSW 21:53:33 10° S
Cosmos 2058 3.2 21:46:02 11° SSE 21:49:50 45° E 21:53:46 10° NNE
CZ-4B R/B 3.6 21:47:14 10° NNE 21:52:29 61° ESE 21:57:37 10° S
H-2A R/B 3.6 21:50:13 10° SSW 21:54:21 35° W 21:58:31 10° NNW
Cosmos 1707 Rocket 3.9 21:50:33 10° N 21:54:48 50° ENE 21:58:03 16° SSE
Cosmos 2219 3.3 21:50:28 10° S 21:56:04 56° ESE 22:01:42 10° NNE
Terra 3.0 21:55:46 14° ESE 21:59:02 29° ENE 22:03:07 10° N
SL-14 R/B 3.9 21:56:57 16° SSE 21:59:38 38° E 22:03:21 10° NNE
Cosmos 1666 Rocket 4.0 21:56:35 15° SSE 21:59:57 43° E 22:04:09 10° NNE
Cosmos 1898 Rocket 4.2 21:56:18 13° SSE 22:00:13 33° E 22:04:52 10° NE
Cosmos 1726 2.7 21:56:52 10° N 22:00:29 41° ENE 22:02:46 19° SE
CZ-4 SHROUD 4.4 21:57:36 10° S 22:00:35 39° W 22:03:34 10° NNW
Meteor 1-27 4.4 21:55:01 10° N 22:00:42 63° ENE 22:05:11 16° SSE
Cosmos 1271 Rocket 3.9 21:57:52 10° NNE 22:01:11 27° ENE 22:03:14 18° ESE
Nadezhda 2 Rocket 4.4 21:56:15 10° S 22:02:24 82° E 22:08:32 10° N
Cosmos 2322 4.0 21:57:35 10° NNW 22:03:16 65° WSW 22:08:14 13° S
Cosmos 2237 Rocket 3.7 21:59:32 10° N 22:04:17 26° NE 22:08:42 11° ESE
Cosmos 2322 Rocket 4.2 22:02:54 10° NW 22:07:01 21° W 22:11:07 10° SSW
USA 229 DEB 4.2 22:02:54 10° SW 22:09:46 64° NW 22:16:46 10° NNE
USA 229 4.2 22:03:00 10° SW 22:09:52 65° NW 22:16:52 10° NNE
CZ-4 R/B 3.9 22:07:04 10° NNE 22:12:02 67° ESE 22:16:34 12° S
IGS 5A 4.4 22:14:41 20° ESE 22:16:56 35° ENE 22:20:44 10° N
SL-16 R/B 4.4 22:13:09 10° NW 22:17:02 19° W 22:20:54 10° SW
Cosmos 2360 Rocket 2.9 22:12:13 10° NW 22:17:39 48° WSW 22:22:22 13° S
SeaSat 1 4.4 22:16:10 10° E 22:19:34 19° NE 22:22:58 10° N
NOAA 11 4.2 22:16:38 17° SSE 22:20:58 84° WSW 22:26:28 10° NNW
NOSS 3-1 (A) 3.5 22:23:31 10° SSW 22:29:13 55° ESE 22:35:33 10° NE
NOSS 0 Rocket 4.4 22:23:17 10° NNW 22:29:18 52° ENE 22:33:19 21° SE
USA 32 4.0 22:25:27 10° N 22:30:43 72° E 22:34:01 23° SSE
Meteor 2-10 4.4 22:25:10 10° N 22:30:48 59° ENE 22:34:15 24° SSE
Meteor 1-11 4.3 22:25:14 10° S 22:31:01 86° W 22:36:48 10° N
Meteor 1-4 Rocket 2.6 22:28:47 10° N 22:32:34 71° ENE 22:34:11 32° SSE
Cosmos 2242 Rocket 3.5 22:32:10 10° N 22:36:39 84° E 22:39:06 27° S
Cosmos 1626 3.0 22:40:11 29° ESE 22:40:53 31° E 22:44:15 10° NNE
SL-08 RB Rocket 4.3 22:40:45 20° S 22:43:41 51° W 22:48:05 10° NNW
Cosmos 1300 3.7 22:40:03 10° NNW 22:43:41 41° W 22:46:03 19° SSW
Cosmos 2227 Rocket 2.8 22:42:28 26° SSE 22:44:46 37° ESE 22:49:56 10° NE
DELTA 2 DEB (DPAF) 4.4 22:42:51 24° S 22:45:28 65° WSW 22:49:57 10° NNW
ATLAS 2AS CENTAUR R/B 3.5 22:48:10 24° SSE 22:51:54 38° ESE 22:59:04 10° NE
Cosmos 2333 Rocket 2.4 22:46:24 10° NNW 22:52:08 63° ENE 22:55:11 28° SE
Cosmos 1862 Rocket 3.7 22:48:56 10° N 22:53:14 57° E 22:54:46 36° SE
Cosmos 2298 Rocket 4.3 22:48:48 10° SSW 22:54:07 71° WNW 22:59:27 10° NNE
SL-16 R/B 3.6 22:51:18 10° N 22:56:15 30° NE 22:59:45 16° ESE
CARTOSAT-1 3.6 22:54:18 32° S 22:56:16 74° WSW 23:00:36 10° NNW
Sich 1 3.9 22:56:58 15° SSW 23:00:27 48° WNW 23:04:44 10° N
Cosmos 1633 Rocket 3.8 22:58:07 16° SSW 23:01:25 49° WNW 23:05:41 10° N
Cosmos 1937 Rocket 3.4 22:58:30 21° SSW 23:02:06 86° ESE 23:07:19 10° NNE
COSMOS 2428 3.5 22:58:19 10° NW 23:03:38 42° WSW 23:06:47 22° SSW
CZ-4C R/B 4.5 23:05:06 23° SW 23:06:26 30° W 23:09:34 10° NW
Cosmos 1869 3.4 23:02:37 10° N 23:06:39 64° E 23:07:41 45° SE
Cosmos 1455 2.1 23:02:50 10° N 23:06:40 80° E 23:07:33 51° SSE
ATLAS 3B R/B 3.4 23:04:37 10° NNW 23:11:29 48° NE 23:16:06 19° ESE
Cosmos 2297 Rocket 2.6 23:10:25 34° SSE 23:12:09 43° ESE 23:17:28 10° NE
H-2A R/B 2.6 23:10:13 25° SSW 23:13:07 53° W 23:18:27 10° NNW
Cosmos 990 Rocket 3.8 23:13:39 30° SSW 23:16:15 82° ESE 23:21:26 10° NNE
NOSS 3-1 (C) 4.0 23:11:10 10° SW 23:17:02 60° NW 23:23:37 10° NNE
Lacrosse 4 Rocket 3.0 23:13:43 10° N 23:17:36 29° NE 23:19:36 21° E
Cosmos 2219 Rocket 2.4 23:14:33 10° NNW 23:20:05 62° WSW 23:22:26 34° S
Cosmos 1869 Rocket 4.5 23:21:53 32° ESE 23:22:28 33° E 23:26:29 10° NNE
Cosmos 1241 Rocket 4.3 23:20:29 23° SSW 23:24:26 73° ESE 23:30:41 10° NE
Cosmos 389 Rocket 4.1 23:23:50 10° NNE 23:26:45 23° ENE 23:26:58 23° ENE
BREEZE-M DEB (TANK) 2.1 23:25:35 10° WNW 23:27:41 83° W 23:27:41 83° W
ALOS 2 4.0 23:27:29 23° E 23:28:46 26° ENE 23:32:26 10° N
Nadezhda 1 Rocket 4.4 23:28:08 10° NNW 23:34:00 53° W 23:37:15 26° SSW
Cosmos 1980 3.8 23:29:57 10° NNW 23:35:33 64° WSW 23:37:35 39° S
Terra 3.1 23:34:39 23° SW 23:36:41 32° W 23:40:57 10° NNW
Cosmos 1346 4.5 23:39:15 31° W 23:39:36 32° WNW 23:42:23 10° N
H-2A R/B 3.7 23:36:41 10° NE 23:40:11 27° E 23:40:11 27° E
Cosmos 1689 Rocket 4.2 23:42:10 21° ENE 23:42:12 21° ENE 23:44:45 10° NNE
COSMOS 2455 3.0 23:37:11 10° NNW 23:43:14 69° ENE 23:45:49 35° SE
CZ-4B R/B 3.1 23:44:09 25° ENE 23:44:17 25° ENE 23:47:10 10° NNE
Cosmos 1900 4.4 23:41:18 10° NNW 23:46:17 68° NE 23:47:46 44° ESE
Cosmos 1125 Rocket 3.5 23:46:29 46° S 23:47:56 68° ESE 23:53:14 10° NNE
Cosmos 1048 Rocket 4.1 23:43:10 10° NNW 23:48:32 69° ENE 23:50:14 43° SE
Cosmos 2237 Rocket 2.5 23:43:07 10° NNW 23:48:41 55° WSW 23:50:31 38° SSW
BREEZE-M TANK 3.5 23:34:10 10° WSW 23:49:10 90° SW 23:52:50 10° ENE
Meteor 2-3 Rocket 4.4 23:49:35 35° SE 23:51:00 41° E 23:56:20 10° NNE
Cosmos 2082 4.0 23:49:09 24° SW 23:52:41 68° WNW 23:58:25 10° NNE
Cosmos 1703 Rocket 3.5 23:49:30 10° N 23:53:54 81° W 23:54:35 62° S
Cosmos 2221 Rocket 3.6 23:50:06 10° N 23:54:41 85° W 23:55:32 59° S
Okean 1-7 3.0 23:50:51 10° N 23:55:07 64° E 23:55:37 58° ESE
